Monroe, MI

10:17 AM EST on January 20, 2017 (GMT -0500)
Custer

Weather History for KTTF - October, 2010

Change the Weather History Date:

Monday, October 4, 2010

  Actual Average Record
Temperature  
Mean Temperature 51 °F -  
Max Temperature 60 °F 68 °F 91 °F (1951)
Min Temperature 42 °F 47 °F 32 °F (1935)
Degree Days  
Heating Degree Days 14    
Growing Degree Days 1 (Base 50)    
Moisture  
Dew Point 39 °F    
Average Humidity 69    
Maximum Humidity 93    
Minimum Humidity 39    
Precipitation  
Precipitation 0.00 in - - ()
Sea Level Pressure  
Sea Level Pressure 30.30 in    
Wind  
Wind Speed 7 mph (NNE)    
Max Wind Speed 12 mph    
Max Gust Speed 18 mph    
Visibility 10 miles    
Events      
Averages and records for this station are not official NWS values.
T = Trace of Precipitation, MM = Missing Value Source: NWS Daily Summary

Daily Weather History Graph

Daily Weather History Graph

Search for Another Location

Airport or City:

Trip Planner

Search our weather history database for the weather conditions in past years. The results will help you decide how hot, cold, wet, or windy it might be!

Date:

Astronomy

Oct. 04, 2010 Rise Set
Actual Time 7:33 AM EDT 7:10 PM EDT
Civil Twilight 7:06 AM EDT 7:38 PM EDT
Nautical Twilight 6:33 AM EDT 8:10 PM EDT
Astronomical Twilight 6:01 AM EDT 8:42 PM EDT
Moon 3:37 AM EDT (10/4) 5:10 PM EDT (10/4)
Length of Visible Light 12h 32m
Length of Day
11h 36m
Waning Crescent, 14% of the Moon is Illuminated
Oct 4
Waning Crescent
Oct 7
New
Oct 14
First Quarter
Oct 22
Full
Oct 30
Last Quarter

Hourly Weather History & Observations

Time (EDT) Temp. Windchill Dew Point Humidity Pressure Visibility Wind Dir Wind Speed Gust Speed Precip Events Conditions
12:14 AM 46.4 °F 42.4 °F 39.2 °F 76% 30.30 in 10.0 mi North 8.1 mph - N/A   Mostly Cloudy
12:34 AM 46.4 °F 43.5 °F 39.2 °F 76% 30.30 in 10.0 mi North 5.8 mph - N/A   Mostly Cloudy
12:54 AM 44.6 °F 41.4 °F 39.2 °F 81% 30.30 in 10.0 mi North 5.8 mph - N/A   Scattered Clouds
1:14 AM 44.6 °F 42.2 °F 39.2 °F 81% 30.30 in 10.0 mi North 4.6 mph - N/A   Scattered Clouds
1:34 AM 44.6 °F 41.4 °F 39.2 °F 81% 30.30 in 10.0 mi North 5.8 mph - N/A   Scattered Clouds
1:53 AM 44.6 °F 41.4 °F 41.0 °F 87% 30.29 in 10.0 mi North 5.8 mph - N/A   Scattered Clouds
2:13 AM 44.6 °F 41.4 °F 39.2 °F 81% 30.30 in 10.0 mi North 5.8 mph - N/A   Scattered Clouds
2:33 AM 44.6 °F 41.4 °F 41.0 °F 87% 30.30 in 10.0 mi North 5.8 mph - N/A   Mostly Cloudy
2:53 AM 44.6 °F 41.4 °F 41.0 °F 87% 30.29 in 10.0 mi North 5.8 mph - N/A   Overcast
3:14 AM 46.4 °F 42.4 °F 42.8 °F 87% 30.29 in 10.0 mi North 8.1 mph - N/A   Overcast
3:34 AM 44.6 °F 40.7 °F 41.0 °F 87% 30.28 in 10.0 mi North 6.9 mph - N/A   Overcast
3:54 AM 44.6 °F 40.2 °F 41.0 °F 87% 30.28 in 10.0 mi North 8.1 mph - N/A   Overcast
4:14 AM 44.6 °F 40.7 °F 41.0 °F 87% 30.28 in 10.0 mi North 6.9 mph - N/A   Mostly Cloudy
4:34 AM 44.6 °F 39.7 °F 41.0 °F 87% 30.28 in 10.0 mi North 9.2 mph - N/A   Overcast
4:54 AM 44.6 °F 40.2 °F 41.0 °F 87% 30.28 in 10.0 mi North 8.1 mph - N/A   Overcast
5:14 AM 44.6 °F 40.2 °F 41.0 °F 87% 30.29 in 10.0 mi North 8.1 mph - N/A   Mostly Cloudy
5:34 AM 44.6 °F 41.4 °F 41.0 °F 87% 30.29 in 10.0 mi North 5.8 mph - N/A   Scattered Clouds
5:53 AM 42.8 °F 38.0 °F 41.0 °F 93% 30.29 in 10.0 mi North 8.1 mph - N/A   Clear
6:13 AM 42.8 °F 38.6 °F 39.2 °F 87% 30.29 in 10.0 mi North 6.9 mph - N/A   Clear
6:33 AM 42.8 °F 39.3 °F 39.2 °F 87% 30.30 in 10.0 mi North 5.8 mph - N/A   Clear
6:53 AM 42.8 °F 39.3 °F 39.2 °F 87% 30.31 in 10.0 mi North 5.8 mph - N/A   Clear
7:13 AM 42.8 °F 39.3 °F 39.2 °F 87% 30.31 in 10.0 mi North 5.8 mph - N/A   Clear
7:33 AM 42.8 °F 39.3 °F 39.2 °F 87% 30.31 in 10.0 mi North 5.8 mph - N/A   Clear
7:53 AM 42.8 °F 40.1 °F 39.2 °F 87% 30.32 in 10.0 mi North 4.6 mph - N/A   Clear
8:14 AM 42.8 °F 40.1 °F 39.2 °F 87% 30.32 in 10.0 mi North 4.6 mph - N/A   Clear
8:34 AM 44.6 °F 41.4 °F 41.0 °F 87% 30.33 in 10.0 mi NNE 5.8 mph - N/A   Clear
8:54 AM 46.4 °F 42.9 °F 41.0 °F 81% 30.33 in 10.0 mi North 6.9 mph - N/A   Clear
9:13 AM 48.2 °F - 42.8 °F 82% 30.33 in 10.0 mi North 6.9 mph - N/A   Clear
9:34 AM 48.2 °F - 42.8 °F 82% 30.33 in 10.0 mi North 6.9 mph - N/A   Clear
9:54 AM 51.8 °F - 42.8 °F 71% 30.34 in 10.0 mi North 6.9 mph - N/A   Clear
10:14 AM 53.6 °F - 39.2 °F 58% 30.33 in 10.0 mi NNE 6.9 mph - N/A   Clear
10:34 AM 53.6 °F - 39.2 °F 58% 30.33 in 10.0 mi NNE 9.2 mph - N/A   Clear
10:54 AM 55.4 °F - 39.2 °F 54% 30.33 in 10.0 mi NE 9.2 mph 17.3 mph N/A   Clear
11:13 AM 55.4 °F - 39.2 °F 54% 30.33 in 10.0 mi NNE 9.2 mph - N/A   Clear
11:33 AM 55.4 °F - 37.4 °F 51% 30.33 in 10.0 mi NNE 8.1 mph 11.5 mph N/A   Clear
11:54 AM 57.2 °F - 37.4 °F 48% 30.33 in 10.0 mi NE 10.4 mph 16.1 mph N/A   Clear
12:13 PM 57.2 °F - 39.2 °F 51% 30.33 in 10.0 mi NNE 10.4 mph 18.4 mph N/A   Clear
12:34 PM 57.2 °F - 39.2 °F 51% 30.33 in 10.0 mi NNE 8.1 mph 16.1 mph N/A   Clear
12:54 PM 57.2 °F - 37.4 °F 48% 30.33 in 10.0 mi NNE 5.8 mph - N/A   Clear
1:14 PM 59.0 °F - 39.2 °F 48% 30.33 in 10.0 mi North 9.2 mph - N/A   Clear
1:33 PM 59.0 °F - 37.4 °F 45% 30.32 in 10.0 mi NNE 8.1 mph 17.3 mph N/A   Clear
1:53 PM 59.0 °F - 37.4 °F 45% 30.31 in 10.0 mi ENE 8.1 mph 18.4 mph N/A   Clear
2:14 PM 60.8 °F - 37.4 °F 42% 30.30 in 10.0 mi NE 6.9 mph 17.3 mph N/A   Clear
2:34 PM 60.8 °F - 37.4 °F 42% 30.29 in 10.0 mi North 9.2 mph - N/A   Clear
2:53 PM 60.8 °F - 37.4 °F 42% 30.28 in 10.0 mi NNE 11.5 mph 17.3 mph N/A   Clear
3:13 PM 60.8 °F - 35.6 °F 39% 30.28 in 10.0 mi North 6.9 mph 16.1 mph N/A   Clear
3:34 PM 60.8 °F - 35.6 °F 39% 30.28 in 10.0 mi North 8.1 mph - N/A   Clear
3:53 PM 60.8 °F - 37.4 °F 42% 30.27 in 10.0 mi NNE 6.9 mph - N/A   Clear
4:13 PM 60.8 °F - 37.4 °F 42% 30.27 in 10.0 mi North 9.2 mph - N/A   Clear
4:34 PM 60.8 °F - 37.4 °F 42% 30.27 in 10.0 mi North 3.5 mph - N/A   Clear
4:54 PM 60.8 °F - 37.4 °F 42% 30.27 in 10.0 mi North 4.6 mph - N/A   Scattered Clouds
5:14 PM 59.0 °F - 37.4 °F 45% 30.28 in 10.0 mi NNE 5.8 mph - N/A   Scattered Clouds
5:34 PM 60.8 °F - 37.4 °F 42% 30.26 in 10.0 mi NW 9.2 mph - N/A   Scattered Clouds
5:53 PM 60.8 °F - 37.4 °F 42% 30.27 in 10.0 mi NNW 6.9 mph - N/A   Scattered Clouds
6:13 PM 59.0 °F - 37.4 °F 45% 30.27 in 10.0 mi North 4.6 mph - N/A   Mostly Cloudy
6:33 PM 57.2 °F - 39.2 °F 51% 30.27 in 10.0 mi North 5.8 mph - N/A   Scattered Clouds
6:53 PM 55.4 °F - 39.2 °F 54% 30.27 in 10.0 mi North 4.6 mph - N/A   Clear
7:13 PM 53.6 °F - 39.2 °F 58% 30.27 in 10.0 mi Calm Calm - N/A   Clear
7:33 PM 53.6 °F - 39.2 °F 58% 30.27 in 10.0 mi Calm Calm - N/A   Clear
7:53 PM 51.8 °F - 39.2 °F 62% 30.28 in 10.0 mi NNW 4.6 mph - N/A   Clear
8:13 PM 50.0 °F - 39.2 °F 66% 30.28 in 10.0 mi NW 3.5 mph - N/A   Clear
8:33 PM 50.0 °F - 39.2 °F 66% 30.28 in 10.0 mi NW 3.5 mph - N/A   Scattered Clouds
8:53 PM 48.2 °F - 39.2 °F 71% 30.28 in 10.0 mi ENE 4.6 mph - N/A   Scattered Clouds
9:13 PM 50.0 °F - 41.0 °F 71% 30.28 in 10.0 mi Calm Calm - N/A   Mostly Cloudy
9:33 PM 50.0 °F - 41.0 °F 71% 30.28 in 10.0 mi NE 3.5 mph - N/A   Scattered Clouds
9:53 PM 48.2 °F - 42.8 °F 82% 30.28 in 10.0 mi Calm Calm - N/A   Clear
10:13 PM 48.2 °F - 42.8 °F 82% 30.28 in 10.0 mi Calm Calm - N/A   Clear
10:33 PM 48.2 °F - 42.8 °F 82% 30.28 in 10.0 mi Calm Calm - N/A   Clear
10:53 PM 48.2 °F - 42.8 °F 82% 30.28 in 10.0 mi North 3.5 mph - N/A   Clear
11:13 PM 48.2 °F - 44.6 °F 87% 30.27 in 10.0 mi North 3.5 mph - N/A   Clear
11:33 PM 48.2 °F - 42.8 °F 82% 30.27 in 10.0 mi Calm Calm - N/A   Scattered Clouds
11:54 PM 48.2 °F - 42.8 °F 82% 30.28 in 10.0 mi Calm Calm - N/A   Clear